Annette Island, AK

5:08 AM AKST on February 21, 2018 (GMT -0900)
Annette Island

Weather History for PANT - July, 2013

Change the Weather History Date:

Tuesday, July 16, 2013

  Actual Average Record
Temperature  
Mean Temperature 68 °F 59 °F  
Max Temperature 84 °F 64 °F 84 °F (2013)
Min Temperature 52 °F 53 °F 46 °F (2001)
Degree Days  
Heating Degree Days 0    
Month to date heating degree days 95 118  
Since 1 June heating degree days 315 416  
Since 1 July heating degree days 95 118  
Cooling Degree Days 3    
Month to date cooling degree days 3  
Year to date cooling degree days 9  
Since 1 June cooling degree days 9  
Growing Degree Days 16 (Base 50)    
Moisture  
Dew Point 55 °F    
Average Humidity 68    
Maximum Humidity 100    
Minimum Humidity 38    
Precipitation  
Precipitation 0.00 in 0.15 in 2.30 in (1960)
Month to date precipitation 1.83 2.33  
Year to date precipitation 45.12 45.63  
Snow  
Snow 0.00 in 0.00 in 0.00 in (2016)
Month to date snowfall 0.0 0.0  
Since 1 June snowfall 0.0 0.0  
Since 1 July snowfall 0.0 0.0  
Snow Depth 0.00 in    
Sea Level Pressure  
Sea Level Pressure 30.03 in    
Wind  
Wind Speed 4 mph (NNW)    
Max Wind Speed 13 mph    
Max Gust Speed 17 mph    
Visibility 10 miles    
Events      
T = Trace of Precipitation, MM = Missing Value Source: NWS Daily Summary

Daily Weather History Graph

Daily Weather History Graph

Search for Another Location

Airport or City:

Trip Planner

Search our weather history database for the weather conditions in past years. The results will help you decide how hot, cold, wet, or windy it might be!

Date:

Astronomy

Jul. 16, 2013 Rise Set
Actual Time 4:29 AM AKDT 9:14 PM AKDT
Civil Twilight 3:37 AM AKDT 10:06 PM AKDT
Nautical Twilight 2:07 AM AKDT 11:33 PM AKDT
Astronomical Twilight Sun does not rise Sun does not rise
Moon 2:39 PM AKDT (7/16) No Moon Set
Length of Visible Light 18h 29m
Length of Day
16h 45m
First Quarter, 58% of the Moon is Illuminated
Jul 16
First Quarter
Jul 22
Full
Jul 29
Last Quarter
Aug 6
New
Aug 14
First Quarter

Hourly Weather History & Observations

Time (AKDT) Temp. Heat Index Dew Point Humidity Pressure Visibility Wind Dir Wind Speed Gust Speed Precip Events Conditions
12:53 AM 55.0 °F - 52.0 °F 89% 30.11 in 10.0 mi Calm Calm - N/A   Clear
1:53 AM 55.0 °F - 53.1 °F 93% 30.11 in 10.0 mi Calm Calm - N/A   Clear
2:53 AM 54.0 °F - 53.1 °F 97% 30.10 in 10.0 mi Calm Calm - N/A   Clear
3:53 AM 53.1 °F - 52.0 °F 96% 30.09 in 10.0 mi Calm Calm - N/A   Clear
4:53 AM 53.1 °F - 52.0 °F 96% 30.09 in 9.0 mi Calm Calm - N/A   Clear
5:09 AM 51.8 °F - 51.8 °F 100% 30.09 in 10.0 mi Calm Calm - N/A   Partly Cloudy
5:53 AM 55.0 °F - 54.0 °F 96% 30.09 in 10.0 mi Calm Calm - N/A   Partly Cloudy
6:53 AM 62.1 °F - 55.9 °F 80% 30.09 in 10.0 mi NNW 5.8 mph - N/A   Scattered Clouds
7:53 AM 64.9 °F - 55.9 °F 73% 30.08 in 10.0 mi NW 8.1 mph - N/A   Scattered Clouds
8:53 AM 68.0 °F - 57.0 °F 68% 30.08 in 10.0 mi NW 6.9 mph - N/A   Scattered Clouds
9:53 AM 71.1 °F - 57.9 °F 63% 30.06 in 10.0 mi NNW 8.1 mph - N/A   Mostly Cloudy
10:53 AM 73.9 °F - 57.9 °F 57% 30.06 in 10.0 mi Variable 6.9 mph - N/A   Scattered Clouds
11:53 AM 77.0 °F - 59.0 °F 54% 30.04 in 10.0 mi NW 6.9 mph - N/A   Scattered Clouds
12:53 PM 79.0 °F - 59.0 °F 50% 30.03 in 10.0 mi NW 10.4 mph - N/A   Scattered Clouds
1:53 PM 81.0 °F 81.6 °F 60.1 °F 49% 30.02 in 10.0 mi NNW 11.5 mph - N/A   Partly Cloudy
2:53 PM 82.9 °F 82.8 °F 59.0 °F 44% 29.99 in 10.0 mi NNW 8.1 mph - N/A   Partly Cloudy
3:53 PM 82.9 °F 82.0 °F 55.0 °F 38% 29.98 in 10.0 mi NW 8.1 mph - N/A   Scattered Clouds
4:53 PM 81.0 °F 81.0 °F 57.0 °F 44% 29.97 in 10.0 mi NNW 5.8 mph - N/A   Scattered Clouds
5:53 PM 79.0 °F - 53.1 °F 40% 29.95 in 10.0 mi NNW 9.2 mph - N/A   Clear
6:53 PM 75.0 °F - 54.0 °F 48% 29.94 in 10.0 mi NNW 6.9 mph - N/A   Clear
7:53 PM 73.9 °F - 54.0 °F 50% 29.93 in 10.0 mi NNW 5.8 mph - N/A   Clear
8:53 PM 70.0 °F - 55.0 °F 59% 29.93 in 10.0 mi NNW 6.9 mph - N/A   Clear
9:53 PM 66.9 °F - 55.9 °F 68% 29.94 in 10.0 mi NNW 5.8 mph - N/A   Clear
10:53 PM 63.0 °F - 55.9 °F 78% 29.94 in 10.0 mi NW 5.8 mph - N/A   Clear
11:53 PM 66.0 °F - 54.0 °F 65% 29.94 in 10.0 mi NNW 6.9 mph - N/A   Clear